When you browse on this site, cookies collect data to enhance your experience and personalize the content and advertising you see.
Visit our Privacy Policy to learn more. By continuing to use the site, you agree to this use of cookies and data.

Hourly Weather Tlaxcoapan

Today, 15 July, Wednesday

Time Temperature Precipitation Wind Pressure Humidity
00:00 +14°C° 0 mm 0 mps 595 mmHg 93%
01:00 +14°C° 0 mm 0 mps 595 mmHg 93%
02:00 +14°C° 0 mm 0 mps 594 mmHg 94%
03:00 +14°C° 0 mm 0 mps 594 mmHg 94%
04:00 +13°C° 0 mm 0 mps 594 mmHg 94%
05:00 +13°C° 0 mm 0 mps 594 mmHg 94%
06:00 +15°C° 0 mm 0 mps 595 mmHg 86%
07:00 +17°C° 0 mm 0 mps 596 mmHg 79%
08:00 +19°C° 0 mm 0 mps 597 mmHg 71%
09:00 +23°C° 0.1 mm 1 mps 597 mmHg 64%
10:00 +24°C° 0.1 mm 1 mps 598 mmHg 57%
11:00 +26°C° 0.1 mm 2 mps 598 mmHg 51%
12:00 +26°C° 0.4 mm 3 mps 598 mmHg 50%
13:00 +26°C° 0.4 mm 3 mps 598 mmHg 48%
14:00 +26°C° 0.4 mm 4 mps 597 mmHg 47%
15:00 +25°C° 0.8 mm 4 mps 597 mmHg 53%
16:00 +23°C° 0.8 mm 4 mps 596 mmHg 59%
17:00 +22°C° 0.8 mm 4 mps 595 mmHg 65%
18:00 +21°C° 1.2 mm 3 mps 595 mmHg 72%
19:00 +19°C° 1.2 mm 2 mps 596 mmHg 78%
20:00 +19°C° 1.2 mm 1 mps 596 mmHg 85%
21:00 +18°C° 0.4 mm 1 mps 596 mmHg 87%
22:00 +16°C° 0.4 mm 1 mps 595 mmHg 90%
23:00 +16°C° 0.4 mm 1 mps 595 mmHg 92%

Tomorrow, 16 July, Thursday

Time Temperature Precipitation Wind Pressure Humidity
00:00 +15°C° 0 mm 1 mps 595 mmHg 93%
01:00 +15°C° 0 mm 1 mps 595 mmHg 95%
02:00 +14°C° 0 mm 0 mps 594 mmHg 96%
03:00 +14°C° 0 mm 0 mps 594 mmHg 95%
04:00 +14°C° 0 mm 0 mps 595 mmHg 95%
05:00 +14°C° 0 mm 0 mps 595 mmHg 95%
06:00 +15°C° 0 mm 0 mps 596 mmHg 89%
07:00 +16°C° 0 mm 0 mps 596 mmHg 84%
08:00 +17°C° 0 mm 0 mps 597 mmHg 78%
09:00 +21°C° 0.1 mm 1 mps 598 mmHg 70%
10:00 +23°C° 0.1 mm 2 mps 598 mmHg 62%
11:00 +25°C° 0.1 mm 2 mps 598 mmHg 53%
12:00 +25°C° 0.1 mm 4 mps 598 mmHg 52%
13:00 +26°C° 0.1 mm 5 mps 598 mmHg 51%
14:00 +26°C° 0.1 mm 6 mps 598 mmHg 50%
15:00 +24°C° 1.2 mm 6 mps 597 mmHg 57%
16:00 +22°C° 1.2 mm 6 mps 596 mmHg 65%
17:00 +21°C° 1.2 mm 5 mps 596 mmHg 72%
18:00 +19°C° 1 mm 4 mps 596 mmHg 78%
19:00 +18°C° 1 mm 3 mps 595 mmHg 83%
20:00 +16°C° 1 mm 2 mps 595 mmHg 89%
21:00 +16°C° 0.1 mm 2 mps 596 mmHg 91%
22:00 +15°C° 0.1 mm 1 mps 596 mmHg 92%
23:00 +15°C° 0.1 mm 1 mps 596 mmHg 94%

Day after tomorrow, 17 July, Friday

Time Temperature Precipitation Wind Pressure Humidity
00:00 +15°C° 0 mm 1 mps 595 mmHg 94%
01:00 +14°C° 0 mm 1 mps 595 mmHg 95%
02:00 +13°C° 0 mm 0 mps 595 mmHg 96%
03:00 +13°C° 0 mm 0 mps 595 mmHg 94%
04:00 +13°C° 0 mm 0 mps 595 mmHg 92%
05:00 +14°C° 0 mm 0 mps 595 mmHg 90%
06:00 +15°C° 0 mm 0 mps 596 mmHg 84%
07:00 +16°C° 0 mm 0 mps 596 mmHg 79%
08:00 +16°C° 0 mm 0 mps 597 mmHg 73%
09:00 +20°C° 0 mm 1 mps 597 mmHg 66%
10:00 +22°C° 0 mm 1 mps 598 mmHg 59%
11:00 +24°C° 0 mm 1 mps 598 mmHg 52%
12:00 +24°C° 0.1 mm 2 mps 598 mmHg 49%
13:00 +25°C° 0.1 mm 3 mps 598 mmHg 46%
14:00 +25°C° 0.1 mm 4 mps 598 mmHg 43%
15:00 +23°C° 0.6 mm 5 mps 597 mmHg 50%
16:00 +22°C° 0.6 mm 5 mps 596 mmHg 57%
17:00 +20°C° 0.6 mm 5 mps 596 mmHg 65%
18:00 +19°C° 0.7 mm 4 mps 596 mmHg 71%
19:00 +18°C° 0.7 mm 3 mps 596 mmHg 77%
20:00 +16°C° 0.7 mm 1 mps 596 mmHg 83%
21:00 +16°C° 0.3 mm 1 mps 596 mmHg 83%
22:00 +16°C° 0.3 mm 1 mps 596 mmHg 83%
23:00 +16°C° 0.3 mm 1 mps 596 mmHg 83%

18 July, Saturday

Time Temperature Precipitation Wind Pressure Humidity
00:00 +16°C° 0.2 mm 1 mps 596 mmHg 83%
01:00 +16°C° 0.2 mm 1 mps 595 mmHg 83%
02:00 +15°C° 0.2 mm 1 mps 595 mmHg 83%
03:00 +14°C° 0.1 mm 0 mps 595 mmHg 84%
04:00 +14°C° 0.1 mm 0 mps 595 mmHg 84%
05:00 +14°C° 0.1 mm 0 mps 595 mmHg 84%
06:00 +15°C° 0 mm 0 mps 596 mmHg 78%
07:00 +16°C° 0 mm 0 mps 596 mmHg 72%
08:00 +17°C° 0 mm 0 mps 597 mmHg 67%
09:00 +21°C° 0.2 mm 1 mps 597 mmHg 61%
10:00 +21°C° 0.2 mm 2 mps 598 mmHg 55%
11:00 +24°C° 0.2 mm 3 mps 598 mmHg 49%
12:00 +23°C° 0.2 mm 4 mps 598 mmHg 47%
13:00 +25°C° 0.2 mm 5 mps 597 mmHg 45%
14:00 +24°C° 0.2 mm 6 mps 597 mmHg 43%
15:00 +23°C° 0.2 mm 6 mps 596 mmHg 49%
16:00 +22°C° 0.2 mm 6 mps 596 mmHg 56%
17:00 +20°C° 0.2 mm 6 mps 595 mmHg 63%
18:00 +19°C° 0.1 mm 5 mps 595 mmHg 69%
19:00 +17°C° 0.1 mm 3 mps 595 mmHg 75%
20:00 +15°C° 0.1 mm 2 mps 595 mmHg 81%
21:00 +15°C° 0 mm 1 mps 595 mmHg 85%
22:00 +14°C° 0 mm 1 mps 595 mmHg 88%
23:00 +14°C° 0 mm 1 mps 595 mmHg 92%

19 July, Sunday

Time Temperature Precipitation Wind Pressure Humidity
00:00 +14°C° 0 mm 1 mps 595 mmHg 92%
01:00 +12°C° 0 mm 0 mps 594 mmHg 93%
02:00 +12°C° 0 mm 0 mps 594 mmHg 93%
03:00 +12°C° 0 mm 0 mps 594 mmHg 93%
04:00 +12°C° 0 mm 0 mps 594 mmHg 93%
05:00 +11°C° 0 mm 0 mps 594 mmHg 93%
06:00 +13°C° 0 mm 0 mps 595 mmHg 84%
07:00 +15°C° 0 mm 0 mps 596 mmHg 75%
08:00 +17°C° 0 mm 0 mps 597 mmHg 66%
09:00 +21°C° 0 mm 1 mps 597 mmHg 59%
10:00 +23°C° 0 mm 2 mps 597 mmHg 53%
11:00 +24°C° 0 mm 2 mps 598 mmHg 46%
12:00 +25°C° 0.1 mm 3 mps 598 mmHg 45%
13:00 +25°C° 0.1 mm 4 mps 597 mmHg 43%
14:00 +26°C° 0.1 mm 5 mps 597 mmHg 42%
15:00 +25°C° 0.3 mm 5 mps 596 mmHg 51%
16:00 +22°C° 0.3 mm 5 mps 596 mmHg 60%
17:00 +21°C° 0.3 mm 5 mps 595 mmHg 68%
18:00 +19°C° 0.6 mm 4 mps 595 mmHg 75%
19:00 +18°C° 0.6 mm 3 mps 595 mmHg 82%
20:00 +16°C° 0.6 mm 2 mps 595 mmHg 89%
21:00 +16°C° 0 mm 2 mps 595 mmHg 91%
22:00 +15°C° 0 mm 1 mps 595 mmHg 93%
23:00 +15°C° 0 mm 1 mps 595 mmHg 95%

20 July, Monday

Time Temperature Precipitation Wind Pressure Humidity
00:00 +15°C° 0 mm 1 mps 594 mmHg 95%
01:00 +14°C° 0 mm 0 mps 594 mmHg 94%
02:00 +14°C° 0 mm 0 mps 594 mmHg 94%
03:00 +14°C° 0 mm 0 mps 594 mmHg 92%
04:00 +14°C° 0 mm 0 mps 595 mmHg 91%
05:00 +14°C° 0 mm 0 mps 595 mmHg 90%
06:00 +15°C° 0 mm 0 mps 595 mmHg 85%
07:00 +16°C° 0 mm 0 mps 596 mmHg 80%
08:00 +17°C° 0 mm 0 mps 596 mmHg 75%
09:00 +20°C° 0 mm 1 mps 596 mmHg 69%
10:00 +22°C° 0 mm 1 mps 597 mmHg 64%
11:00 +23°C° 0 mm 2 mps 597 mmHg 59%
12:00 +24°C° 0.6 mm 3 mps 597 mmHg 56%
13:00 +25°C° 0.6 mm 3 mps 597 mmHg 53%
14:00 +26°C° 0.6 mm 4 mps 596 mmHg 51%
15:00 +23°C° 1.6 mm 4 mps 596 mmHg 59%
16:00 +22°C° 1.6 mm 4 mps 595 mmHg 67%
17:00 +20°C° 1.6 mm 4 mps 595 mmHg 75%
18:00 +19°C° 1.2 mm 3 mps 595 mmHg 79%
19:00 +18°C° 1.2 mm 2 mps 595 mmHg 83%
20:00 +18°C° 1.2 mm 1 mps 595 mmHg 87%
21:00 +18°C° 0.3 mm 1 mps 595 mmHg 87%
22:00 +16°C° 0.3 mm 1 mps 595 mmHg 88%
23:00 +16°C° 0.3 mm 1 mps 595 mmHg 89%
Show more